ONEWEB-0013 (45131 NORAD) Tracking and Keplerian Element Data

This shows tracking and keplerian element data for the satellite.

Feedback or suggestion? Click here.




ElementValue
Catalog45131
NameONEWEB-0013
Epoch Orbit928
Epoch Day93.58787216
Epoch Year2020
RAAN145.3154
Inclination87.5392
Eccentricity0.0020416
Argument of Perigee80.2549
Mean Anonmoly280.099
Mean Motion15.03639354
Decay Rate-0.00291992
L11 45131U 20008A 20093.58787216 -.00291992 00000-0 -22145-1 0 9991
L22 45131 87.5392 145.3154 0020416 80.2549 280.0990 15.03639354 9280

Live tracking and technical data element details for ONEWEB-0013 (NORAD 45131). ONEWEB-0013 can be tracked NOW for your location showing map with azimuth and elevation plus other details from your city location.

Track the satellite on the map from your city or location and see movement details for azimuth, elevation, latitude, longitude, range, height, and movement on the map or in text.







IsCatalogInMostPopularTable: catalog: 45131, numindb: 13
Update: records affected: 1



GetName: 45131 ONEWEB-0013

Hit Count: updated at: Fri, 10 Apr 2020 17:57:38 GMT